Content
SEND FEEDBACK

Daily
Averages
Monthly
Summary
United States of America

CRESTED BUTTE, COLORADO


Home > North America > United States > Colorado
Elevation: 9277 feet     Latitude: 38 52N     Longitude: 106 58W

WEATHER
 
SELECT A DAY
Number of Records: 454,892;   Date Range: 1/1/95 - 10/23/14
 
SHARE

PRINT THIS DATA

[ ← Previous Day ]
WEATHER ALMANAC - APRIL 6, 2013
[ Next Day → ]
[ °C ]   °F
Weather ElementAverageHighLow
Temperature42.4 °F55.4 °F (1:55 pm)26.6 °F (6:35 am)
Dewpoint23.1 °F32 °F (9:55 am)10.4 °F (3:55 pm)
Humidity54.7 %93 % (4:55 am)17 % (3:55 pm)
Barometer30.07 in30.13 in (8:15 am)30.00 in (5:55 pm)
Wind Speed6.8 mph19.6 mph (2:15 pm)
Wind Gust26.5 mph (1:35 pm)
Weather ElementAverage
Visibility10 mi
Wind DirectionSSE (167.2 °)

Weather ElementTotal
Precipitation---
Heating Degree Days24 (Base 65)
Averaged from 64 records on April 6, 2013
WEATHER CONDITIONS BREAKOUT
WIND DIRECTION BREAKOUT
WEATHER BY HOUR - APRIL 6, 2013
[ °C ]   °F
Local TimeTemperatureDewpointHumidityBarometerVisibilityWind DirectionWind SpeedGust SpeedPrecipitationEventsConditions
12:35 AM37.4 °F30.2 °F75 %30.09 in10.0 miCalmClear
1:15 AM35.6 °F30.2 °F81 %30.10 in10.0 miCalmClear
1:35 AM35.6 °F30.2 °F81 %30.10 in10.0 miNNW (330°)3.5 mphClear
1:55 AM35.6 °F28.4 °F75 %30.10 in10.0 miNorth (350°)3.5 mphClear
2:15 AM33.8 °F28.4 °F81 %30.10 in10.0 miNorth (350°)4.6 mphClear
2:35 AM32.0 °F28.4 °F87 %30.10 in10.0 miNNW (340°)3.5 mphClear
2:55 AM32.0 °F28.4 °F87 %30.09 in10.0 miCalmClear
3:15 AM30.2 °F24.8 °F80 %30.09 in10.0 miCalmClear
3:55 AM30.2 °F26.6 °F86 %30.09 in10.0 miENE (60°)3.5 mphClear
4:35 AM30.2 °F26.6 °F86 %30.08 in10.0 miCalmClear
4:55 AM28.4 °F26.6 °F93 %30.09 in10.0 miCalmClear
5:15 AM28.4 °F26.6 °F93 %30.08 in10.0 miCalmClear
5:35 AM28.4 °F26.6 °F93 %30.08 in10.0 miCalmClear
5:55 AM28.4 °F24.8 °F86 %30.09 in10.0 miCalmScattered Clouds
6:15 AM28.4 °F24.8 °F86 %30.10 in10.0 miWSW (250°)3.5 mphScattered Clouds
6:35 AM26.6 °F24.8 °F93 %30.10 in10.0 miCalmClear
6:55 AM26.6 °F23.0 °F86 %30.10 in10.0 miCalmClear
7:15 AM26.6 °F24.8 °F93 %30.11 in10.0 miSouth (180°)4.6 mphClear
7:35 AM28.4 °F24.8 °F86 %30.12 in10.0 miCalmClear
7:55 AM30.2 °F26.6 °F86 %30.12 in10.0 miCalmMostly Cloudy
8:15 AM30.2 °F26.6 °F86 %30.13 in10.0 miCalmMostly Cloudy
8:35 AM33.8 °F30.2 °F87 %30.13 in10.0 miCalmPartly Cloudy
8:55 AM35.6 °F30.2 °F81 %30.13 in10.0 miEast (100°)4.6 mphPartly Cloudy
9:35 AM37.4 °F30.2 °F75 %30.13 in10.0 miENE (70°)3.5 mphMostly Cloudy
9:55 AM37.4 °F32.0 °F81 %30.12 in10.0 miENE (60°)4.6 mphClear
10:15 AM39.2 °F32.0 °F75 %30.12 in10.0 miNNE (30°)3.5 mphClear
10:35 AM42.8 °F32.0 °F66 %30.12 in10.0 miCalmClear
10:55 AM42.8 °F30.2 °F61 %30.11 in10.0 miCalmClear
11:15 AM44.6 °F32.0 °F61 %30.11 in10.0 miCalmClear
11:35 AM46.4 °F30.2 °F53 %30.10 in10.0 miNW (310°)6.9 mphClear
11:55 AM48.2 °F28.4 °F46 %30.09 in10.0 miCalmClear
12:15 PM50.0 °F26.6 °F40 %30.08 in10.0 miSW (220°)10.4 mph16.1 mphClear
12:35 PM51.8 °F23.0 °F33 %30.07 in10.0 miSW (220°)13.8 mph24.2 mphClear
12:55 PM53.6 °F19.4 °F26 %30.07 in10.0 miSW (220°)16.1 mph23.0 mphClear
1:35 PM53.6 °F15.8 °F22 %30.06 in10.0 miSW (230°)15.0 mph26.5 mphScattered Clouds
1:55 PM55.4 °F15.8 °F21 %30.05 in10.0 miWest (270°)17.3 mph25.3 mphPartly Cloudy
2:15 PM55.4 °F14.0 °F20 %30.04 in10.0 miWSW (240°)19.6 mph26.5 mphClear
2:35 PM55.4 °F12.2 °F18 %30.04 in10.0 miSW (230°)15.0 mph24.2 mphScattered Clouds
2:55 PM55.4 °F12.2 °F18 %30.03 in10.0 miWSW (250°)13.8 mph19.6 mphScattered Clouds
3:15 PM55.4 °F12.2 °F18 %30.03 in10.0 miWSW (240°)12.7 mph23.0 mphPartly Cloudy
3:35 PM55.4 °F12.2 °F18 %30.02 in10.0 miWSW (250°)12.7 mph23.0 mphScattered Clouds
3:55 PM55.4 °F10.4 °F17 %30.01 in10.0 miWSW (250°)16.1 mphMostly Cloudy
4:15 PM55.4 °F14.0 °F20 %30.01 in10.0 miWest (280°)11.5 mph20.7 mphMostly Cloudy
4:55 PM55.4 °F14.0 °F20 %30.01 in10.0 miWest (270°)10.4 mph24.2 mphMostly Cloudy
5:15 PM55.4 °F15.8 °F21 %30.01 in10.0 miWest (270°)11.5 mph24.2 mphPartly Cloudy
5:35 PM53.6 °F15.8 °F22 %30.01 in10.0 miWest (270°)10.4 mphScattered Clouds
5:55 PM53.6 °F15.8 °F22 %30.00 in10.0 miWest (270°)10.4 mph19.6 mphScattered Clouds
6:15 PM53.6 °F15.8 °F22 %30.00 in10.0 miNNW (340°)12.7 mphScattered Clouds
6:35 PM53.6 °F15.8 °F22 %30.00 in10.0 miWNW (290°)13.8 mph17.3 mphScattered Clouds
6:55 PM51.8 °F15.8 °F24 %30.00 in10.0 miWNW (290°)13.8 mph17.3 mphMostly Cloudy
7:15 PM51.8 °F15.8 °F24 %30.00 in10.0 miWNW (300°)8.1 mphOvercast
7:35 PM51.8 °F17.6 °F26 %30.00 in10.0 miNNW (340°)10.4 mphScattered Clouds
8:15 PM48.2 °F19.4 °F32 %30.01 in10.0 miNorth (350°)6.9 mphMostly Cloudy
8:35 PM46.4 °F19.4 °F34 %30.02 in10.0 miNNE (30°)3.5 mphMostly Cloudy
8:55 PM46.4 °F19.4 °F34 %30.03 in10.0 miNNE (30°)3.5 mphMostly Cloudy
9:15 PM46.4 °F19.4 °F34 %30.04 in10.0 miWNW (290°)11.5 mph17.3 mphOvercast
9:35 PM48.2 °F19.4 °F32 %30.05 in10.0 miWNW (290°)18.4 mph23.0 mphOvercast
9:55 PM46.4 °F21.2 °F37 %30.06 in10.0 miWNW (290°)17.3 mph24.2 mphMostly Cloudy
10:15 PM44.6 °F24.8 °F46 %30.08 in10.0 miWNW (290°)12.7 mph19.6 mphOvercast
10:35 PM42.8 °F26.6 °F53 %30.07 in10.0 miWSW (250°)6.9 mphOvercast
10:55 PM42.8 °F26.6 °F53 %30.08 in10.0 miWSW (240°)5.8 mphMostly Cloudy
11:15 PM41.0 °F26.6 °F57 %30.06 in10.0 miSSW (210°)6.9 mphScattered Clouds
11:35 PM39.2 °F28.4 °F65 %30.07 in10.0 miSW (220°)8.1 mphPartly Cloudy
11:55 PM39.2 °F28.4 °F65 %30.08 in10.0 miWSW (240°)5.8 mphMostly Cloudy
Hourly data recorded from KGUC, located miles away from Crested Butte, Colorado







STORIES FROM OUR PARTNERS